SCP
0 0 0 0 0 0 -0 0 0 0 0 0 0 0 0 0 0 0 -0 -0 0 0
0 -0 -0 -0 0 -0 0 0 0 0 0 0 0 0 0 0 0 0 0 0 -0 -0
0 -0 -0 -0 0 0 0 0 0 0 0 0 -0 0 0 0 0 0 -0 -0 0 0
0 0 -0 -0 0 0 0 0 0 0 0 0 -0 0 0 0 0 0 0 0 0 0
0 0 0 0 -0 0 0 0 0 0 0 0 0 0 0 0 0 0 -0 0 0 -0
0 0 0 0 0 0 0 0 0 0 0 -0 0 0 0 0 0 0 0 0 0 0
0 0 0 0 0 0 0 0 0 0 0 0 0 0 0 0 0 0 0 0 0 -0
0 0 0 0 0 0 0 0 0 0 0 0 0 0 0 0 0 0 0 0 0 -0
0 0 0 0 0 0 0 0 0 0 0 0 0 0 0 0 0 0 0 -0 -0 -0
0 0 -0 0 0 0 0 0 0 0 0 0 0 0 0 0 0 0 0 -0 -0 0
-0 0 -0 -0 -0 0 0 0 0 0 0 0 0 0 0 0 0 0 0 0 0 0
0 -0 0 0 0 0 0 0 0 0 0 0 0 0 0 0 0 0 0 0 0 0
0 0 0 0 0 0 0 0 0 0 0 0 0 0 0 0 0 0 0 0 0 0
0 0 0 -0 0 0 0 0 0 0 0 0 0 0 0 0 0 0 0 0 0 0
Wind_Speed_500mb
43 39 43 32 37 35 33 30 21 26 26 25 26 27 27 24 24 24 20 20 17 17
45 46 39 36 35 39 35 32 26 23 30 27 27 27 28 31 33 32 29 28 27 22
47 48 39 35 37 35 37 35 33 27 26 27 29 28 30 28 28 32 34 33 29 23
46 52 51 45 40 40 43 41 33 28 28 32 36 40 37 35 31 29 29 33 31 28
46 49 52 54 51 45 46 45 41 37 35 32 35 39 39 36 31 31 32 31 32 36
49 49 54 52 50 52 54 53 49 42 41 36 38 38 39 38 37 34 32 32 36 35
49 53 51 53 51 53 53 59 57 52 45 41 38 39 41 43 40 38 35 33 35 35
36 53 63 57 55 51 51 53 56 56 51 49 44 46 42 43 46 47 45 41 39 39
59 55 44 52 57 58 53 50 48 51 50 48 51 48 47 46 48 51 50 48 44 41
63 54 49 49 60 63 63 59 56 54 57 53 49 47 48 48 49 51 52 51 50 49
48 53 54 55 54 53 57 63 58 60 62 60 55 51 50 51 51 54 52 53 55 55
26 30 34 43 44 43 57 63 62 58 52 50 55 54 54 56 58 59 58 57 56 55
27 31 32 32 36 34 30 32 46 54 52 51 53 54 58 59 64 64 63 58 58 58
26 27 35 35 35 33 37 42 45 46 45 41 48 52 54 54 59 63 65 64 63 64
Wind_Direction_500mb
246 245 233 234 230 240 240 244 257 237 239 244 241 240 235 238 246 259 254 256 244 244
246 240 237 230 235 240 248 236 236 236 238 244 242 244 246 242 245 251 253 249 240 246
247 241 240 239 242 236 233 227 229 236 233 239 239 242 244 251 256 258 246 239 242 239
250 245 244 242 241 237 235 232 228 236 242 252 253 253 251 257 256 258 244 243 248 247
253 248 249 247 243 240 238 238 242 246 253 248 250 250 245 252 249 249 248 250 252 256
251 248 251 256 251 245 243 243 246 250 249 251 250 249 243 247 244 242 247 253 258 260
246 251 248 250 249 249 246 244 244 249 248 247 250 250 245 242 244 244 247 254 259 251
245 262 251 247 245 247 244 245 246 248 250 251 254 244 243 248 254 255 254 257 260 251
247 265 251 248 248 246 241 244 247 242 244 253 249 248 247 250 254 255 257 255 252 254
251 253 247 262 259 256 247 243 242 246 247 244 247 251 251 252 256 256 256 256 254 252
250 251 254 267 257 249 245 242 243 245 252 254 248 250 259 259 260 260 260 258 255 253
245 253 259 266 260 262 250 251 259 255 259 260 258 262 265 266 264 262 261 260 257 256
267 268 269 267 260 266 259 245 252 261 257 262 266 266 267 268 265 260 258 257 254 252
277 284 279 272 268 266 262 260 266 243 244 268 273 267 264 261 260 261 258 257 257 254
Wind_Speed_850mb
43 39 43 32 37 35 33 30 21 26 26 25 26 27 27 24 24 24 20 20 17 17
45 46 39 36 35 39 35 32 26 23 30 27 27 27 28 31 33 32 29 28 27 22
47 48 39 35 37 35 37 35 33 27 26 27 29 28 30 28 28 32 34 33 29 23
46 52 51 45 40 40 43 41 33 28 28 32 36 40 37 35 31 29 29 33 31 28
46 49 52 54 51 45 46 45 41 37 35 32 35 39 39 36 31 31 32 31 32 36
49 49 54 52 50 52 54 53 49 42 41 36 38 38 39 38 37 34 32 32 36 35
49 53 51 53 51 53 53 59 57 52 45 41 38 39 41 43 40 38 35 33 35 35
36 53 63 57 55 51 51 53 56 56 51 49 44 46 42 43 46 47 45 41 39 39
59 55 44 52 57 58 53 50 48 51 50 48 51 48 47 46 48 51 50 48 44 41
63 54 49 49 60 63 63 59 56 54 57 53 49 47 48 48 49 51 52 51 50 49
48 53 54 55 54 53 57 63 58 60 62 60 55 51 50 51 51 54 52 53 55 55
26 30 34 43 44 43 57 63 62 58 52 50 55 54 54 56 58 59 58 57 56 55
27 31 32 32 36 34 30 32 46 54 52 51 53 54 58 59 64 64 63 58 58 58
26 27 35 35 35 33 37 42 45 46 45 41 48 52 54 54 59 63 65 64 63 64
Wind_Direction_850mb
246 245 233 234 230 240 240 244 257 237 239 244 241 240 235 238 246 259 254 256 244 244
246 240 237 230 235 240 248 236 236 236 238 244 242 244 246 242 245 251 253 249 240 246
247 241 240 239 242 236 233 227 229 236 233 239 239 242 244 251 256 258 246 239 242 239
250 245 244 242 241 237 235 232 228 236 242 252 253 253 251 257 256 258 244 243 248 247
253 248 249 247 243 240 238 238 242 246 253 248 250 250 245 252 249 249 248 250 252 256
251 248 251 256 251 245 243 243 246 250 249 251 250 249 243 247 244 242 247 253 258 260
246 251 248 250 249 249 246 244 244 249 248 247 250 250 245 242 244 244 247 254 259 251
245 262 251 247 245 247 244 245 246 248 250 251 254 244 243 248 254 255 254 257 260 251
247 265 251 248 248 246 241 244 247 242 244 253 249 248 247 250 254 255 257 255 252 254
251 253 247 262 259 256 247 243 242 246 247 244 247 251 251 252 256 256 256 256 254 252
250 251 254 267 257 249 245 242 243 245 252 254 248 250 259 259 260 260 260 258 255 253
245 253 259 266 260 262 250 251 259 255 259 260 258 262 265 266 264 262 261 260 257 256
267 268 269 267 260 266 259 245 252 261 257 262 266 266 267 268 265 260 258 257 254 252
277 284 279 272 268 266 262 260 266 243 244 268 273 267 264 261 260 261 258 257 257 254